Flag for Turkmenistan Weather past 2 weeks in Ashgabat, Turkmenistan

Now
75 °F

Sprinkles. Broken clouds.


Feels Like: 77 °F
Forecast: 59 / 74 °F
Wind: 10 mph from Northwest

Location: Ashgabat


UV Index: 7 (High)

Visibility: N/A


Pressure: 29.80 "Hg

Humidity: 36%

Dew point: 46 °F

Location of AshgabatLocation

Historic Weather in Ashgabat

°F

Ashgabat temperature yesterday

Maximum temperature yesterday: 86 °F (at 5:00 PM)
Minimum temperature yesterday: 68 °F (at 6:00 AM)
Average temperature yesterday: 75 °F

Past Weeks' High & Low Weather Summary

 TemperatureHumidityPressure
High91 °F (Apr 22, 4:00 PM)88% (Apr 24, 5:00 AM)30.27 "Hg (Apr 24, 5:00 AM)
Low50 °F (Apr 14, 6:00 AM)8% (Apr 20, 4:00 PM)29.71 "Hg (Apr 24, 2:00 AM)
Average69 °F39%29.99 "Hg
* Reported Apr 9 5:00 PM — Apr 24 5:00 PM, Ashgabat, Weather by CustomWeather, © 2014

Note: Actual official high and low records may vary slightly from our data, if they occured in-between our weather recording intervals... More about our weather records

Advertising

Historic Weather Conditions — Data for Previous 24 hours

 ConditionsComfort  
Time TempWeatherWind HumidityBarometerVisibility
5:00 PM
Apr 24
75 °FBroken clouds.3 mph44%29.80 "HgN/A
4:00 PM73 °FBroken clouds.3 mph50%29.80 "HgN/A
3:00 PM72 °FBroken clouds.3 mph57%29.83 "HgN/A
2:00 PM70 °FSprinkles. Partly sunny.6 mph64%29.83 "HgN/A
1:00 PM68 °FPartly sunny.6 mph69%29.83 "HgN/A
12:00 PM64 °FCloudy.8 mph78%29.83 "HgN/A
11:00 AM66 °FSprinkles. Cloudy.6 mph73%29.83 "HgN/A
10:00 AM66 °FMostly cloudy.6 mph73%29.80 "HgN/A
9:00 AM66 °FMostly cloudy.6 mph78%29.77 "HgN/A
8:30 AM63 °FMostly cloudy.6 mph88%29.80 "HgN/A
8:00 AM63 °FMostly cloudy.10 mph88%29.77 "HgN/A
7:00 AM63 °FMostly cloudy.13 mph83%29.77 "HgN/A
6:00 AM63 °FSprinkles. Overcast.13 mph83%29.77 "HgN/A
5:00 AM63 °FSprinkles. Overcast.15 mph88%29.74 "HgN/A
4:00 AM64 °FSprinkles. Overcast.13 mph83%29.74 "HgN/A
3:00 AM70 °FMostly cloudy.6 mph60%29.71 "HgN/A
2:00 AM70 °FSprinkles. Overcast.6 mph64%29.71 "HgN/A
1:00 AM70 °FMostly cloudy.6 mph57%29.77 "HgN/A
12:00 AM70 °FMostly cloudy.3 mph53%29.77 "HgN/A
11:00 PM
Apr 23
72 °FPartly cloudy.6 mph53%29.80 "HgN/A
10:00 PM72 °FMostly cloudy.6 mph57%29.80 "HgN/A
9:00 PM77 °FMostly cloudy.10 mph42%29.80 "HgN/A
8:00 PM81 °FMostly cloudy.8 mph32%29.77 "HgN/A
7:30 PM81 °FPleasantly warm.6 mph34%29.77 "HgN/A
7:00 PM82 °FCloudy.8 mph30%29.77 "HgN/A
6:00 PM84 °FBroken clouds.3 mph25%29.77 "HgN/A
Weather by CustomWeather, © 2014

See weather overview